User: anonymous   Login
Location: Newark
(52.8300°N, 8.0000°E)
Time: 11:59:54
(UTC+00:00)
Language:

STARLINK-1097 - Orbit

View from above orbital plane
View from above orbital plane
View from above satellite
View from above satellite

Ground track
Ground track

The orbit data is extracted from the following two-line orbital elements,

1 44916U 20001C   20095.25001157 -.00009088  00000-0 -60535-3 0  9993
2 44916  53.0011 347.6477 0002493  70.1664 204.4967 15.05574758 13481
Epoch (UTC): 04 April 2020 06:00:01
Eccentricity: 0.0002493
inclination: 53.0011°
perigee height: 548 km
apogee height: 551 km
right ascension of ascending node: 347.6477°
argument of perigee: 70.1664°
revolutions per day: 15.05574758
mean anomaly at epoch: 204.4967°
orbit number at epoch: 1348

The dashed part of the orbit path shows where the satellite is in the earth's shadow,  

DLR